COSMOS 375

Satellite information

Favourite Embed

Satellite Type and Status

PAYLOADIN ORBIT

Key statistics

Satellite COSMOS 375 at a glance.

Uptime

19974

Days in orbit

Revolutions

≈ 13.0

Per day

Orbit

MEO

Medium Earth Orbit

Inclination

62.8

Latest

Satellite identification and parameters

Extended collection of information and parameters for COSMOS 375.

Object identification

Identified? True

Debris? False

Object name: COSMOS 375

International designator: 1970-091A

Object number (NORAD): 4598

Object ID (CCSDS): 4598

Country: COMMONWEALTH OF INDEPENDENT STATES (CIS)

Current information (Y/N): Y

RCS size: LARGE

Orbital parameters

Period: 111.003 minutes

Inclination: 62.8133 deg

SMA: 7650.99 km

Apoapsis: 2015.17 km

Periapsis: 530.539 km

RAAN: 86.6464 deg

Eccentricy: 0.0970222

Argument of periapsis: 146.2309 deg

Mean anomaly: 220.4554 deg

Mean motion: 12.97257968 rev/day

Mean motion (dot): 0.00000049 rev/day2

B* drag term: 0.000055456 1/REarth

Two-line elements (TLE)

Creation date: July 6, 2025, 6:05 p.m.

Reference frame: TEME

Reference center: EARTH

Epoch: July 6, 2025, 1:02 a.m. UTC

TLE line 0: 0 COSMOS 375

TLE line 1: 1 04598U 70091A 25187.04373466 .00000049 00000-0 55456-4 0 9991

TLE line 2: 2 04598 62.8133 86.6464 0970222 146.2309 220.4554 12.97257968583679

Live tracking on map

Real-time ground track for satellite COSMOS 375.

In-orbit conjunctions

A list of the most updated potential collisions computed for object COSMOS 375.

Target Orbit TCA Probability of collision Miss distance Type
PSLV R/B SSO 2025-04-09 14:01:24 0.0005614078 131.0 (m) ROCKET BODY

Associated space launch

The I2P satellites were the first soviet coorbital ASAT system.

COSMOS 375 was lifted into orbit during the mission ‘Tsiklon-2 | I2P 5’, on board a Tsiklon-2 space rocket.

The launch took place on Oct. 30, 1970, 2:36 a.m. from 90/20.

For more information about the launch, click the button.

Launch to space Tsiklon-2 | I2P 5
Tsiklon-2 | I2P 5

Agency: N/A

Status: Launch Successful

Launch date: Oct. 30, 1970, 2:36 a.m. UTC

Rocket: Tsiklon-2

Launch pad: 90/20

Location: Baikonur Cosmodrome, Republic of Kazakhstan

...

Latest news about this satellite

There are no fresh news available about this satellite. Check back as we update our databases every day.


Newsletter sign-up

Weekly statistics, charts and insights to help you stay on top of the space industry.